Hourly Weather Domanevka

Today, 12 July, Sunday

Time Temperature Precipitation Wind Pressure Humidity
00:00 +24°C° 0 mm 2 mps 754 mmHg 55%
01:00 +23°C° 0 mm 2 mps 754 mmHg 54%
02:00 +23°C° 0 mm 2 mps 754 mmHg 54%
03:00 +21°C° 0 mm 2 mps 753 mmHg 56%
04:00 +21°C° 0 mm 2 mps 753 mmHg 58%
05:00 +21°C° 0 mm 2 mps 753 mmHg 59%
06:00 +24°C° 0 mm 2 mps 753 mmHg 55%
07:00 +25°C° 0 mm 2 mps 753 mmHg 51%
08:00 +27°C° 0 mm 2 mps 753 mmHg 46%
09:00 +29°C° 0 mm 2 mps 753 mmHg 43%
10:00 +30°C° 0 mm 2 mps 753 mmHg 41%
11:00 +31°C° 0 mm 1 mps 752 mmHg 38%
12:00 +31°C° 0 mm 2 mps 752 mmHg 37%
13:00 +32°C° 0 mm 2 mps 752 mmHg 36%
14:00 +32°C° 0 mm 2 mps 751 mmHg 36%
15:00 +31°C° 0 mm 2 mps 751 mmHg 39%
16:00 +31°C° 0 mm 2 mps 751 mmHg 42%
17:00 +31°C° 0 mm 2 mps 750 mmHg 45%
18:00 +29°C° 0 mm 3 mps 751 mmHg 49%
19:00 +28°C° 0 mm 4 mps 751 mmHg 54%
20:00 +27°C° 0 mm 5 mps 751 mmHg 58%
21:00 +24°C° 0.1 mm 6 mps 751 mmHg 67%
22:00 +22°C° 0.1 mm 7 mps 751 mmHg 76%
23:00 +21°C° 0.1 mm 8 mps 751 mmHg 84%

Tomorrow, 13 July, Monday

Time Temperature Precipitation Wind Pressure Humidity
00:00 +20°C° 0.6 mm 8 mps 751 mmHg 85%
01:00 +18°C° 0.6 mm 8 mps 751 mmHg 86%
02:00 +17°C° 0.6 mm 7 mps 751 mmHg 87%
03:00 +17°C° 0.3 mm 8 mps 751 mmHg 87%
04:00 +16°C° 0.3 mm 8 mps 751 mmHg 87%
05:00 +15°C° 0.3 mm 8 mps 751 mmHg 87%
06:00 +15°C° 0.1 mm 8 mps 751 mmHg 87%
07:00 +15°C° 0.1 mm 8 mps 751 mmHg 86%
08:00 +13°C° 0.1 mm 8 mps 752 mmHg 85%
09:00 +14°C° 1 mm 7 mps 752 mmHg 86%
10:00 +14°C° 1 mm 7 mps 752 mmHg 87%
11:00 +14°C° 1 mm 7 mps 751 mmHg 88%
12:00 +14°C° 0.6 mm 7 mps 752 mmHg 86%
13:00 +14°C° 0.6 mm 7 mps 752 mmHg 85%
14:00 +15°C° 0.6 mm 7 mps 752 mmHg 83%
15:00 +15°C° 0 mm 7 mps 752 mmHg 82%
16:00 +15°C° 0 mm 7 mps 752 mmHg 80%
17:00 +15°C° 0 mm 7 mps 752 mmHg 78%
18:00 +15°C° 0 mm 6 mps 751 mmHg 79%
19:00 +15°C° 0 mm 5 mps 751 mmHg 80%
20:00 +15°C° 0 mm 5 mps 751 mmHg 81%
21:00 +15°C° 0 mm 4 mps 751 mmHg 82%
22:00 +15°C° 0 mm 4 mps 751 mmHg 82%
23:00 +15°C° 0 mm 4 mps 752 mmHg 82%

Day after tomorrow, 14 July, Tuesday

Time Temperature Precipitation Wind Pressure Humidity
00:00 +15°C° 0 mm 5 mps 751 mmHg 80%
01:00 +15°C° 0 mm 5 mps 751 mmHg 78%
02:00 +15°C° 0 mm 6 mps 751 mmHg 76%
03:00 +14°C° 0 mm 6 mps 751 mmHg 76%
04:00 +14°C° 0 mm 6 mps 751 mmHg 75%
05:00 +14°C° 0 mm 6 mps 751 mmHg 75%
06:00 +15°C° 0 mm 6 mps 751 mmHg 74%
07:00 +15°C° 0 mm 7 mps 751 mmHg 72%
08:00 +16°C° 0 mm 7 mps 751 mmHg 71%
09:00 +17°C° 0.1 mm 7 mps 751 mmHg 67%
10:00 +20°C° 0.1 mm 7 mps 751 mmHg 63%
11:00 +21°C° 0.1 mm 8 mps 751 mmHg 59%
12:00 +21°C° 0.2 mm 7 mps 751 mmHg 60%
13:00 +21°C° 0.2 mm 7 mps 751 mmHg 61%
14:00 +20°C° 0.2 mm 6 mps 751 mmHg 62%
15:00 +21°C° 0 mm 6 mps 751 mmHg 59%
16:00 +22°C° 0 mm 6 mps 751 mmHg 56%
17:00 +22°C° 0 mm 6 mps 751 mmHg 53%
18:00 +21°C° 0 mm 5 mps 752 mmHg 58%
19:00 +20°C° 0 mm 4 mps 752 mmHg 63%
20:00 +19°C° 0 mm 3 mps 752 mmHg 68%
21:00 +18°C° 0 mm 3 mps 752 mmHg 71%
22:00 +17°C° 0 mm 3 mps 752 mmHg 74%
23:00 +15°C° 0 mm 4 mps 752 mmHg 76%

15 July, Wednesday

Time Temperature Precipitation Wind Pressure Humidity
00:00 +15°C° 0 mm 4 mps 752 mmHg 77%
01:00 +14°C° 0 mm 4 mps 753 mmHg 77%
02:00 +14°C° 0 mm 4 mps 753 mmHg 78%
03:00 +14°C° 0 mm 4 mps 753 mmHg 80%
04:00 +13°C° 0 mm 3 mps 753 mmHg 82%
05:00 +13°C° 0 mm 3 mps 753 mmHg 85%
06:00 +16°C° 0 mm 3 mps 753 mmHg 77%
07:00 +18°C° 0 mm 4 mps 754 mmHg 70%
08:00 +20°C° 0 mm 4 mps 754 mmHg 62%
09:00 +22°C° 0 mm 4 mps 754 mmHg 56%
10:00 +23°C° 0 mm 4 mps 754 mmHg 50%
11:00 +25°C° 0 mm 4 mps 754 mmHg 44%
12:00 +26°C° 0 mm 4 mps 754 mmHg 42%
13:00 +27°C° 0 mm 4 mps 754 mmHg 40%
14:00 +27°C° 0 mm 4 mps 754 mmHg 38%
15:00 +27°C° 0 mm 4 mps 753 mmHg 41%
16:00 +27°C° 0 mm 4 mps 753 mmHg 43%
17:00 +26°C° 0 mm 3 mps 753 mmHg 45%
18:00 +25°C° 0 mm 3 mps 753 mmHg 50%
19:00 +23°C° 0 mm 2 mps 753 mmHg 54%
20:00 +21°C° 0 mm 1 mps 753 mmHg 59%
21:00 +21°C° 0 mm 1 mps 753 mmHg 60%
22:00 +20°C° 0 mm 1 mps 753 mmHg 62%
23:00 +18°C° 0 mm 0 mps 753 mmHg 64%

16 July, Thursday

Time Temperature Precipitation Wind Pressure Humidity
00:00 +17°C° 0 mm 0 mps 753 mmHg 65%
01:00 +17°C° 0 mm 0 mps 753 mmHg 66%
02:00 +16°C° 0 mm 0 mps 753 mmHg 68%
03:00 +16°C° 0 mm 0 mps 753 mmHg 69%
04:00 +16°C° 0 mm 0 mps 752 mmHg 70%
05:00 +16°C° 0 mm 0 mps 752 mmHg 71%
06:00 +18°C° 0 mm 0 mps 752 mmHg 66%
07:00 +22°C° 0 mm 1 mps 752 mmHg 60%
08:00 +23°C° 0 mm 1 mps 752 mmHg 55%
09:00 +25°C° 0 mm 1 mps 752 mmHg 51%
10:00 +26°C° 0 mm 1 mps 752 mmHg 47%
11:00 +27°C° 0 mm 2 mps 752 mmHg 43%
12:00 +28°C° 0 mm 2 mps 752 mmHg 43%
13:00 +28°C° 0 mm 2 mps 751 mmHg 43%
14:00 +28°C° 0 mm 2 mps 751 mmHg 43%
15:00 +27°C° 0.4 mm 2 mps 751 mmHg 51%
16:00 +26°C° 0.4 mm 3 mps 750 mmHg 58%
17:00 +24°C° 0.4 mm 3 mps 750 mmHg 66%
18:00 +22°C° 1.1 mm 3 mps 750 mmHg 70%
19:00 +21°C° 1.1 mm 4 mps 750 mmHg 75%
20:00 +20°C° 1.1 mm 4 mps 750 mmHg 80%
21:00 +20°C° 0.3 mm 4 mps 750 mmHg 80%
22:00 +20°C° 0.3 mm 4 mps 750 mmHg 79%
23:00 +19°C° 0.3 mm 4 mps 750 mmHg 79%

17 July, Friday

Time Temperature Precipitation Wind Pressure Humidity
00:00 +19°C° 0 mm 4 mps 750 mmHg 80%
01:00 +19°C° 0 mm 3 mps 750 mmHg 81%
02:00 +18°C° 0 mm 3 mps 750 mmHg 82%
03:00 +18°C° 0 mm 3 mps 750 mmHg 81%
04:00 +18°C° 0 mm 2 mps 750 mmHg 81%
05:00 +18°C° 0 mm 2 mps 750 mmHg 80%
06:00 +20°C° 0 mm 3 mps 750 mmHg 74%
07:00 +22°C° 0 mm 3 mps 750 mmHg 68%
08:00 +23°C° 0 mm 4 mps 750 mmHg 61%
09:00 +25°C° 0 mm 4 mps 750 mmHg 57%
10:00 +26°C° 0 mm 5 mps 750 mmHg 52%
11:00 +28°C° 0 mm 6 mps 750 mmHg 47%
12:00 +28°C° 0 mm 6 mps 750 mmHg 47%
13:00 +28°C° 0 mm 6 mps 750 mmHg 46%
14:00 +28°C° 0 mm 6 mps 750 mmHg 46%
15:00 +26°C° 0.3 mm 6 mps 750 mmHg 58%
16:00 +22°C° 0.3 mm 7 mps 750 mmHg 70%
17:00 +20°C° 0.3 mm 7 mps 750 mmHg 82%
18:00 +19°C° 0.1 mm 5 mps 750 mmHg 83%
19:00 +18°C° 0.1 mm 4 mps 750 mmHg 85%
20:00 +18°C° 0.1 mm 2 mps 751 mmHg 86%
21:00 +18°C° 0.2 mm 2 mps 751 mmHg 88%
22:00 +18°C° 0.2 mm 1 mps 751 mmHg 89%
23:00 +18°C° 0.2 mm 1 mps 751 mmHg 90%
Show more